Regional Weather Roundup
Issued by NWS

Home | Current Version | Previous Version | Graphics & Text | Print | Product List | Glossary On
Versions: 1 2 3 4 5 6 7 8 9 10 11 12 13 14 15 16 17 18 19 20 21 22 23 24 25 26 27 28 29 30 31 32 33 34 35 36 37 38 39 40 41 42 43 44 45 46 47 48 49 50
000
ASUS43 KOAX 231610
RWRNE

WEATHER ROUNDUP FOR NEBRASKA
NATIONAL WEATHER SERVICE OMAHA NE
1000 AM CST MON JAN 23 2017

NOTES: SATELLITE DATA IS BEING USED TO AUGMENT CLOUD COVER ABOVE
       12000 FEET.
       "FAIR" INDICATES FEW OR NO CLOUDS BELOW 12,000 FEET WITH NO
       SIGNIFICANT WEATHER AND/OR OBSTRUCTIONS TO VISIBILITY.

  * THESE STATIONS DO NOT REPORT WEATHER SUCH AS RAIN...SNOW OR FOG.

NEZ001>004-019>022-054>056-231700-
NEBRASKA PANHANDLE

CITY           SKY/WX    TMP DP  RH WIND       PRES   REMARKS
SCOTTSBLUFF    SUNNY     29  24  82 SW3       29.65R
ALLIANCE       CLOUDY    31  26  82 CALM      29.64R
CHADRON        CLOUDY    33  26  75 CALM      29.64F
KIMBALL        MOSUNNY   33  24  69 CALM      29.63S
SIDNEY         MOSUNNY   33  24  69 SW6       29.64R WCI  28
$$

NEZ057>060-069>072-079>082-231700-
SOUTHWEST NEBRASKA

CITY           SKY/WX    TMP DP  RH WIND       PRES   REMARKS
NORTH PLATTE   CLOUDY    33  28  81 E10       29.73F WCI  25
IMPERIAL       SUNNY     36  28  73 S13       29.67S WCI  27
LEXINGTON      MOSUNNY   32  29  88 SE10      29.78F WCI  24
MCCOOK         SUNNY     33  29  85 SE8       29.73F WCI  26
OGALLALA       CLOUDY    35  29  80 E3        29.69R
$$

NEZ005>010-023>029-035>040-094-231700-
NORTH CENTRAL NEBRASKA

CITY           SKY/WX    TMP DP  RH WIND       PRES   REMARKS
VALENTINE      CLOUDY    24  20  84 NE6       29.75S WCI  17
AINSWORTH      CLOUDY    30  29  98 SE8       29.76F WCI  22
BROKEN BOW     CLOUDY    31  28  89 SE7       29.78S WCI  24
O`NEILL        CLOUDY   N/A N/A N/A S3        29.83S FOG
ORD            CLOUDY    27  24  89 SE6       29.82R FOG     WCI  20
THEDFORD       CLOUDY    33  29  87 SE5       29.74F WCI  28
$$

NEZ041-046>049-061>064-073>077-083>087-231700-
SOUTH CENTRAL NEBRASKA

CITY           SKY/WX    TMP DP  RH WIND       PRES   REMARKS
GRAND ISLAND   CLOUDY    28  28 100 SE7       29.85S FOG     WCI  21
AURORA         FOG       28  28 100 SE6       29.86S VSB 1/2 WCI  22
HASTINGS       MOSUNNY   31  28  89 SE8       29.85S WCI  23
HEBRON         CLOUDY    28  28 100 E3        29.89S FOG
HOLDREGE       MOSUNNY   33  30  88 SE9       29.80S WCI  26
KEARNEY *      MOSUNNY   34  28  80 E5        29.82S WCI  30
YORK           MOSUNNY   28  28 100 SE5       29.87F FOG     WCI  23
$$

NEZ011>018-030>034-042>045-231700-
NORTHEAST NEBRASKA

CITY           SKY/WX    TMP DP  RH WIND       PRES   REMARKS
NORFOLK        CLOUDY    29  25  85 SW5       29.87R WCI  24
ALBION         CLOUDY    28  25  91 SE3       29.85F FOG
BLAIR          CLOUDY    32  29  87 NW5       29.88R WCI  28
FREMONT        CLOUDY    33  29  87 CALM      29.90R
TEKAMAH        CLOUDY    33  28  81 N5        29.89S WCI  29
WAYNE          CLOUDY    31  28  86 W5        29.88R WCI  26
$$

NEZ050>053-065>068-078-088>093-231700-
SOUTHEAST NEBRASKA

CITY           SKY/WX    TMP DP  RH WIND       PRES   REMARKS
LINCOLN        CLOUDY    32  28  85 CALM      29.92R
OMAHA EPPLEY   CLOUDY    33  27  78 N3        29.90S
BEATRICE       FOG       29  29  99 E3        29.90S VSB 1/4
FALLS CITY     CLOUDY    31  29  92 VRB3      29.92R
NEBRASKA CITY  CLOUDY    31  28  87 CALM      29.92R
PLATTSMOUTH    CLOUDY    32  26  80 CALM      29.89S
$$

NEZ044-045-051>053-067-231700-
OMAHA AREA

CITY           SKY/WX    TMP DP  RH WIND       PRES   REMARKS
OMAHA EPPLEY   CLOUDY    33  27  78 N3        29.90S
BLAIR          CLOUDY    32  29  87 NW5       29.88R WCI  28
FREMONT        CLOUDY    33  29  87 CALM      29.90R
MILLARD        CLOUDY    35  29  80 N3        29.90R
OFFUTT AFB     CLOUDY    33  32  96 CALM      29.90R
PLATTSMOUTH    CLOUDY    32  26  80 CALM      29.89S
WAHOO          CLOUDY    32  28  83 CALM      29.90R
$$




USA.gov is the U.S. government's official web portal to all federal, state and local government web resources and services.